• In Uzbekistan
  • List of Countries
  • For 7 days
  • Water Temperature
  • Satellite Maps
  • Weather Map
  • Weather Widgets
  • user-avatar
    Login

    Hourly Weather Arhus

    Today, 12 December, Tuesday

    Time Temperature Precipitation Wind Pressure Humidity
    00:00 -2°C° 0.2 mm 6 mps 738 mmHg 90%
    01:00 -2°C° 0 mm 6 mps 738 mmHg 91%
    02:00 -2°C° 0.2 mm 7 mps 738 mmHg 91%
    03:00 -1°C° 0.2 mm 7 mps 738 mmHg 90%
    04:00 -1°C° 0.2 mm 7 mps 738 mmHg 89%
    05:00 -1°C° 0.3 mm 8 mps 738 mmHg 88%
    06:00 -1°C° 0.3 mm 8 mps 739 mmHg 87%
    07:00 -2°C° 0 mm 8 mps 740 mmHg 86%
    08:00 -2°C° 0.1 mm 8 mps 740 mmHg 85%
    09:00 -2°C° 0.1 mm 8 mps 741 mmHg 85%
    10:00 -4°C° 0.1 mm 9 mps 742 mmHg 84%
    11:00 -2°C° 0 mm 8 mps 743 mmHg 83%
    12:00 -2°C° 0 mm 8 mps 744 mmHg 82%
    13:00 -2°C° 0 mm 7 mps 745 mmHg 82%
    14:00 -2°C° 0 mm 7 mps 746 mmHg 82%
    15:00 -3°C° 0 mm 6 mps 747 mmHg 83%
    16:00 -2°C° 0 mm 5 mps 747 mmHg 83%
    17:00 -2°C° 0 mm 5 mps 748 mmHg 83%
    18:00 -1°C° 0 mm 5 mps 748 mmHg 84%
    19:00 -1°C° 0 mm 5 mps 749 mmHg 84%
    20:00 -1°C° 0 mm 6 mps 749 mmHg 84%
    21:00 -1°C° 0 mm 7 mps 749 mmHg 83%
    22:00 0°C° 0 mm 7 mps 750 mmHg 83%
    23:00 0°C° 0 mm 8 mps 750 mmHg 84%

    Tomorrow, 13 December, Wednesday

    Time Temperature Precipitation Wind Pressure Humidity
    00:00 0°C° 0 mm 8 mps 750 mmHg 84%
    01:00 0°C° 0 mm 8 mps 750 mmHg 84%
    02:00 0°C° 0 mm 8 mps 750 mmHg 84%
    03:00 0°C° 0 mm 8 mps 750 mmHg 83%
    04:00 -1°C° 0 mm 8 mps 750 mmHg 83%
    05:00 0°C° 0 mm 8 mps 749 mmHg 83%
    06:00 0°C° 0 mm 9 mps 749 mmHg 84%
    07:00 0°C° 0 mm 9 mps 749 mmHg 84%
    08:00 0°C° 0.1 mm 10 mps 748 mmHg 85%
    09:00 0°C° 0.1 mm 10 mps 748 mmHg 86%
    10:00 -1°C° 0.1 mm 11 mps 747 mmHg 86%
    11:00 -1°C° 0.2 mm 11 mps 746 mmHg 86%
    12:00 -1°C° 0.2 mm 11 mps 745 mmHg 86%
    13:00 -1°C° 0.2 mm 12 mps 744 mmHg 86%
    14:00 -1°C° 0.4 mm 11 mps 743 mmHg 87%
    15:00 -1°C° 0.4 mm 11 mps 743 mmHg 87%
    16:00 0°C° 0.4 mm 10 mps 742 mmHg 88%
    17:00 0°C° 0.8 mm 9 mps 741 mmHg 90%
    18:00 0°C° 0.8 mm 9 mps 740 mmHg 92%
    19:00 0°C° 0.8 mm 8 mps 739 mmHg 94%
    20:00 0°C° 0.2 mm 7 mps 738 mmHg 94%
    21:00 +1°C° 0.2 mm 6 mps 737 mmHg 93%
    22:00 +1°C° 0.2 mm 6 mps 737 mmHg 93%
    23:00 +1°C° 0 mm 6 mps 735 mmHg 93%

    Day after tomorrow, 14 December, Thursday

    Time Temperature Precipitation Wind Pressure Humidity
    00:00 0°C° 0 mm 7 mps 734 mmHg 93%
    01:00 0°C° 0 mm 7 mps 733 mmHg 93%
    02:00 0°C° 0.8 mm 8 mps 732 mmHg 92%
    03:00 +1°C° 0.8 mm 8 mps 731 mmHg 91%
    04:00 +1°C° 0.8 mm 9 mps 730 mmHg 90%
    05:00 +1°C° 0.5 mm 10 mps 729 mmHg 87%
    06:00 +1°C° 0.5 mm 10 mps 729 mmHg 84%
    07:00 +1°C° 0.5 mm 11 mps 729 mmHg 81%
    08:00 0°C° 0.9 mm 12 mps 729 mmHg 80%
    09:00 0°C° 0.9 mm 13 mps 729 mmHg 79%
    10:00 -1°C° 0.9 mm 14 mps 729 mmHg 78%
    11:00 -1°C° 0.9 mm 14 mps 729 mmHg 76%
    12:00 -1°C° 0.9 mm 14 mps 730 mmHg 75%
    13:00 -1°C° 0.9 mm 14 mps 730 mmHg 74%
    14:00 -1°C° 0.8 mm 14 mps 730 mmHg 75%
    15:00 -1°C° 0.8 mm 13 mps 730 mmHg 75%
    16:00 -1°C° 0.8 mm 13 mps 731 mmHg 76%
    17:00 -1°C° 0.8 mm 12 mps 731 mmHg 77%
    18:00 -1°C° 0.8 mm 11 mps 731 mmHg 78%
    19:00 0°C° 0.8 mm 10 mps 732 mmHg 79%
    20:00 0°C° 0.3 mm 9 mps 732 mmHg 81%
    21:00 0°C° 0.3 mm 8 mps 733 mmHg 82%
    22:00 -1°C° 0.3 mm 7 mps 734 mmHg 83%
    23:00 -1°C° 0.1 mm 7 mps 734 mmHg 84%

    15 December, Friday

    Time Temperature Precipitation Wind Pressure Humidity
    00:00 -1°C° 0.1 mm 6 mps 735 mmHg 85%
    01:00 -1°C° 0.1 mm 6 mps 735 mmHg 87%
    02:00 0°C° 0.1 mm 5 mps 735 mmHg 87%
    03:00 0°C° 0.1 mm 5 mps 736 mmHg 88%
    04:00 0°C° 0.1 mm 4 mps 736 mmHg 88%
    05:00 0°C° 0.1 mm 4 mps 736 mmHg 89%
    06:00 -1°C° 0.1 mm 4 mps 737 mmHg 89%
    07:00 0°C° 0.1 mm 3 mps 737 mmHg 89%
    08:00 0°C° 0 mm 3 mps 738 mmHg 89%
    09:00 0°C° 0 mm 3 mps 738 mmHg 89%
    10:00 0°C° 0 mm 3 mps 739 mmHg 89%
    11:00 +1°C° 0 mm 3 mps 739 mmHg 89%
    12:00 +1°C° 0 mm 3 mps 740 mmHg 89%
    13:00 +1°C° 0 mm 3 mps 740 mmHg 89%
    14:00 +1°C° 0 mm 3 mps 740 mmHg 89%
    15:00 +2°C° 0 mm 2 mps 741 mmHg 89%
    16:00 +1°C° 0 mm 2 mps 741 mmHg 89%
    17:00 0°C° 0 mm 3 mps 741 mmHg 88%
    18:00 0°C° 0 mm 3 mps 742 mmHg 87%
    19:00 -1°C° 0 mm 4 mps 742 mmHg 86%
    20:00 -1°C° 0 mm 5 mps 742 mmHg 83%
    21:00 0°C° 0 mm 5 mps 742 mmHg 80%
    22:00 -1°C° 0 mm 6 mps 743 mmHg 76%
    23:00 -1°C° 0 mm 6 mps 743 mmHg 77%

    16 December, Saturday

    Time Temperature Precipitation Wind Pressure Humidity
    00:00 -1°C° 0 mm 7 mps 743 mmHg 77%
    01:00 -2°C° 0 mm 7 mps 743 mmHg 78%
    02:00 -2°C° 0 mm 6 mps 744 mmHg 78%
    03:00 -2°C° 0 mm 6 mps 744 mmHg 78%
    04:00 -1°C° 0 mm 5 mps 744 mmHg 78%
    05:00 -1°C° 0 mm 5 mps 744 mmHg 79%
    06:00 -2°C° 0 mm 4 mps 745 mmHg 80%
    07:00 -2°C° 0 mm 4 mps 745 mmHg 81%
    08:00 -2°C° 0 mm 4 mps 745 mmHg 81%
    09:00 -2°C° 0 mm 4 mps 746 mmHg 81%
    10:00 -2°C° 0 mm 4 mps 747 mmHg 81%
    11:00 -2°C° 0 mm 4 mps 747 mmHg 79%
    12:00 -1°C° 0 mm 4 mps 748 mmHg 77%
    13:00 -1°C° 0 mm 4 mps 748 mmHg 74%
    14:00 -1°C° 0 mm 5 mps 749 mmHg 76%
    15:00 -2°C° 0 mm 5 mps 750 mmHg 77%
    16:00 -2°C° 0 mm 5 mps 750 mmHg 79%
    17:00 -2°C° 0 mm 5 mps 751 mmHg 80%
    18:00 -2°C° 0 mm 4 mps 752 mmHg 82%
    19:00 -3°C° 0 mm 4 mps 752 mmHg 83%
    20:00 -3°C° 0 mm 4 mps 753 mmHg 83%
    21:00 -3°C° 0 mm 4 mps 754 mmHg 83%
    22:00 -3°C° 0 mm 4 mps 754 mmHg 82%
    23:00 -2°C° 0 mm 3 mps 755 mmHg 81%

    17 December, Sunday

    Time Temperature Precipitation Wind Pressure Humidity
    00:00 -2°C° 0 mm 3 mps 755 mmHg 80%
    01:00 -2°C° 0 mm 3 mps 755 mmHg 80%
    02:00 -2°C° 0 mm 3 mps 756 mmHg 80%
    03:00 -2°C° 0 mm 3 mps 756 mmHg 80%
    04:00 -2°C° 0 mm 2 mps 756 mmHg 80%
    05:00 -2°C° 0 mm 2 mps 757 mmHg 81%
    06:00 -2°C° 0 mm 2 mps 757 mmHg 81%
    07:00 -1°C° 0 mm 2 mps 758 mmHg 82%
    08:00 -1°C° 0 mm 2 mps 758 mmHg 81%
    09:00 +1°C° 0 mm 1 mps 759 mmHg 80%
    10:00 +1°C° 0 mm 1 mps 760 mmHg 79%
    11:00 +1°C° 0 mm 1 mps 760 mmHg 78%
    12:00 +1°C° 0 mm 2 mps 760 mmHg 77%
    13:00 +1°C° 0 mm 2 mps 761 mmHg 76%
    14:00 +1°C° 0 mm 2 mps 761 mmHg 78%
    15:00 -1°C° 0 mm 2 mps 761 mmHg 80%
    16:00 -1°C° 0 mm 2 mps 762 mmHg 81%
    17:00 -1°C° 0 mm 2 mps 762 mmHg 82%
    18:00 -1°C° 0 mm 2 mps 762 mmHg 83%
    19:00 -1°C° 0 mm 2 mps 763 mmHg 85%
    20:00 -1°C° 0 mm 2 mps 763 mmHg 85%
    21:00 -1°C° 0 mm 3 mps 763 mmHg 85%
    22:00 -1°C° 0 mm 3 mps 763 mmHg 86%
    23:00 -1°C° 0 mm 3 mps 763 mmHg 86%
    Show more